| time (UTC) | temp F | wind direction | speed MPH | gust MPH | rain 1hr in | rain 24hr in | rain mn in | humidity % | barometer mb |
| 20260503215057 | 65 | 201 | 0.0 | 0.0 | 0.00 | 0.01 | 0.01 | 36 | 1019.0 |
| 20260503214556 | 64 | 223 | 5.0 | 7.0 | 0.00 | 0.01 | 0.01 | 34 | 1019.0 |
| 20260503214052 | 65 | 186 | 3.0 | 4.0 | 0.00 | 0.01 | 0.01 | 37 | 1019.1 |
| 20260503213551 | 66 | 208 | 1.0 | 1.0 | 0.00 | 0.01 | 0.01 | 36 | 1019.2 |
| 20260503213047 | 65 | 204 | 4.0 | 6.0 | 0.00 | 0.01 | 0.01 | 36 | 1019.6 |
| 20260503212544 | 65 | 177 | 7.0 | 11.0 | 0.00 | 0.01 | 0.01 | 35 | 1019.6 |
| 20260503212042 | 66 | 216 | 2.0 | 3.0 | 0.00 | 0.01 | 0.01 | 37 | 1019.5 |
| 20260503211539 | 66 | 229 | 1.0 | 1.0 | 0.00 | 0.01 | 0.01 | 37 | 1019.5 |
| 20260503211034 | 65 | 215 | 2.0 | 2.0 | 0.00 | 0.01 | 0.01 | 39 | 1019.8 |
| 20260503210531 | 66 | 193 | 2.0 | 2.0 | 0.00 | 0.01 | 0.01 | 38 | 1019.6 |
| 20260503210027 | 66 | 198 | 1.0 | 1.0 | 0.00 | 0.01 | 0.01 | 42 | 1019.7 |
| 20260503205524 | 67 | 192 | 1.0 | 1.0 | 0.00 | 0.01 | 0.01 | 38 | 1019.7 |
| 20260503205020 | 67 | 209 | 2.0 | 2.0 | 0.00 | 0.01 | 0.01 | 40 | 1019.8 |
| 20260503204517 | 67 | 215 | 2.0 | 2.0 | 0.00 | 0.01 | 0.01 | 39 | 1019.9 |
| 20260503204014 | 66 | 207 | 1.0 | 1.0 | 0.00 | 0.01 | 0.01 | 43 | 1020.0 |
| 20260503203511 | 66 | 197 | 0.0 | 0.0 | 0.00 | 0.01 | 0.01 | 39 | 1020.0 |
| 20260503203008 | 66 | 222 | 3.0 | 3.0 | 0.00 | 0.01 | 0.01 | 41 | 1020.2 |
| 20260503202506 | 66 | 210 | 1.0 | 1.0 | 0.00 | 0.01 | 0.01 | 40 | 1020.3 |
| 20260503202004 | 66 | 202 | 1.0 | 1.0 | 0.00 | 0.01 | 0.01 | 40 | 1020.2 |
| 20260503201501 | 65 | 200 | 2.0 | 2.0 | 0.00 | 0.01 | 0.01 | 39 | 1020.3 |
| 20260503200959 | 65 | 204 | 1.0 | 1.0 | 0.00 | 0.01 | 0.01 | 35 | 1020.4 |
| 20260503200455 | 65 | 205 | 2.0 | 2.0 | 0.00 | 0.01 | 0.01 | 41 | 1020.5 |
| 20260503195951 | 66 | 185 | 6.0 | 7.0 | 0.00 | 0.01 | 0.01 | 35 | 1020.3 |
| 20260503195449 | 65 | 211 | 1.0 | 1.0 | 0.00 | 0.01 | 0.01 | 42 | 1020.5 |
| 20260503194945 | 64 | 237 | 2.0 | 2.0 | 0.00 | 0.01 | 0.01 | 39 | 1020.8 |
| 20260503194443 | 64 | 228 | 4.0 | 4.0 | 0.00 | 0.01 | 0.01 | 40 | 1020.8 |
| 20260503193938 | 64 | 206 | 4.0 | 4.0 | 0.00 | 0.01 | 0.01 | 39 | 1020.9 |
| 20260503193433 | 64 | 239 | 4.0 | 4.0 | 0.00 | 0.01 | 0.01 | 43 | 1020.9 |
| 20260503192929 | 63 | 219 | 6.0 | 7.0 | 0.00 | 0.01 | 0.01 | 40 | 1021.0 |
| 20260503192426 | 62 | 206 | 5.0 | 7.0 | 0.00 | 0.01 | 0.01 | 40 | 1021.1 |
| 20260503191921 | 63 | 205 | 5.0 | 7.0 | 0.00 | 0.01 | 0.01 | 42 | 1021.0 |
| 20260503191420 | 63 | 198 | 4.0 | 6.0 | 0.00 | 0.01 | 0.01 | 42 | 1021.3 |
| 20260503190915 | 62 | 224 | 4.0 | 6.0 | 0.00 | 0.01 | 0.01 | 46 | 1021.2 |
| 20260503190413 | 62 | 200 | 4.0 | 6.0 | 0.00 | 0.01 | 0.01 | 43 | 1021.3 |
| 20260503185909 | 61 | 170 | 1.0 | 1.0 | 0.00 | 0.01 | 0.01 | 43 | 1021.5 |
| 20260503185406 | 62 | 214 | 5.0 | 7.0 | 0.00 | 0.01 | 0.01 | 43 | 1021.5 |
| 20260503184905 | 62 | 191 | 1.0 | 1.0 | 0.00 | 0.01 | 0.01 | 45 | 1021.6 |
| 20260503184402 | 61 | 178 | 1.0 | 2.0 | 0.00 | 0.01 | 0.01 | 44 | 1021.6 |
| 20260503183858 | 62 | 207 | 7.0 | 8.0 | 0.00 | 0.01 | 0.01 | 44 | 1021.6 |
| 20260503183355 | 61 | 204 | 1.0 | 1.0 | 0.00 | 0.01 | 0.01 | 46 | 1021.4 |
| 20260503182852 | 62 | 216 | 3.0 | 4.0 | 0.00 | 0.01 | 0.01 | 43 | 1021.9 |
| 20260503182351 | 61 | 236 | 1.0 | 1.0 | 0.00 | 0.01 | 0.01 | 42 | 1021.8 |
| 20260503181848 | 60 | 212 | 1.0 | 1.0 | 0.00 | 0.01 | 0.01 | 49 | 1021.9 |
| 20260503181345 | 62 | 216 | 7.0 | 8.0 | 0.00 | 0.01 | 0.01 | 44 | 1021.9 |
| 20260503180842 | 62 | 199 | 4.0 | 6.0 | 0.00 | 0.01 | 0.01 | 47 | 1022.1 |
| 20260503180340 | 61 | 201 | 2.0 | 2.0 | 0.00 | 0.01 | 0.01 | 51 | 1021.9 |
| 20260503175836 | 61 | 67 | 5.0 | 6.0 | 0.00 | 0.01 | 0.01 | 46 | 1022.1 |
| 20260503175334 | 60 | 212 | 2.0 | 3.0 | 0.00 | 0.01 | 0.01 | 52 | 1022.0 |
| 20260503174835 | 61 | 229 | 4.0 | 6.0 | 0.00 | 0.01 | 0.01 | 53 | 1022.2 |
| 20260503174333 | 60 | 242 | 2.0 | 3.0 | 0.00 | 0.01 | 0.01 | 53 | 1022.2 |
| 20260503173828 | 59 | 199 | 1.0 | 1.0 | 0.00 | 0.01 | 0.01 | 49 | 1022.3 |
| 20260503173325 | 60 | 204 | 2.0 | 2.0 | 0.00 | 0.01 | 0.01 | 45 | 1022.7 |
| 20260503172821 | 59 | 195 | 3.0 | 3.0 | 0.00 | 0.01 | 0.01 | 51 | 1022.2 |
| 20260503172319 | 59 | 86 | 5.0 | 6.0 | 0.00 | 0.01 | 0.01 | 47 | 1022.7 |
| 20260503171815 | 59 | 209 | 1.0 | 2.0 | 0.00 | 0.01 | 0.01 | 46 | 1022.6 |
| 20260503171312 | 58 | 211 | 2.0 | 2.0 | 0.00 | 0.01 | 0.01 | 50 | 1022.7 |
| 20260503170809 | 58 | 208 | 2.0 | 3.0 | 0.00 | 0.01 | 0.01 | 53 | 1023.0 |
| 20260503170306 | 57 | 197 | 1.0 | 1.0 | 0.00 | 0.01 | 0.01 | 56 | 1022.9 |
| 20260503150658 | 55 | 198 | 5.0 | 6.0 | 0.00 | 0.01 | 0.01 | 61 | 1023.7 |
| 20260503150154 | 55 | 205 | 6.0 | 7.0 | 0.00 | 0.01 | 0.01 | 63 | 1023.8 |
| 20260503140118 | 51 | 200 | 0.0 | 0.0 | 0.00 | 0.01 | 0.01 | 77 | 1023.8 |
| 20260503131048 | 45 | 204 | 1.0 | 1.0 | 0.00 | 0.01 | 0.01 | 97 | 1023.7 |
| 20260503130545 | 45 | 208 | 3.0 | 3.0 | 0.00 | 0.01 | 0.01 | 97 | 1023.8 |
| 20260503110435 | 42 | 204 | 0.0 | 0.0 | 0.00 | 0.01 | 0.01 | 97 | 1022.2 |
| 20260503090326 | 40 | 200 | 0.0 | 0.0 | 0.00 | 0.00 | 0.00 | 97 | 1021.9 |
| 20260503081254 | 39 | 200 | 0.0 | 0.0 | 0.00 | 0.00 | 0.00 | 97 | 1021.6 |
| 20260503080750 | 39 | 200 | 0.0 | 0.0 | 0.00 | 0.00 | 0.00 | 97 | 1021.5 |
| 20260503080247 | 39 | 200 | 0.0 | 0.0 | 0.00 | 0.00 | 0.00 | 97 | 1021.4 |
| 20260503072724 | 40 | 200 | 0.0 | 0.0 | 0.00 | 0.00 | 0.00 | 97 | 1021.1 |
| 20260503072221 | 40 | 200 | 0.0 | 0.0 | 0.00 | 0.00 | 0.00 | 97 | 1021.1 |
| 20260503071717 | 40 | 200 | 0.0 | 0.0 | 0.00 | 0.00 | 0.00 | 97 | 1021.0 |
| 20260503071214 | 40 | 200 | 0.0 | 0.0 | 0.00 | 0.00 | 0.00 | 97 | 1021.2 |
| 20260503070711 | 40 | 200 | 0.0 | 0.0 | 0.00 | 0.00 | 0.00 | 97 | 1021.1 |
| 20260503070209 | 40 | 200 | 0.0 | 0.0 | 0.00 | 0.00 | 0.00 | 97 | 1021.0 |
| 20260503060133 | 43 | 201 | 0.0 | 0.0 | 0.00 | 0.00 | 0.00 | 96 | 1021.1 |
| 20260503055125 | 43 | 201 | 1.0 | 1.0 | 0.00 | 0.00 | 0.00 | 96 | 1021.0 |
| 20260503054620 | 43 | 201 | 0.0 | 0.0 | 0.00 | 0.00 | 0.00 | 96 | 1020.9 |
| 20260503054118 | 43 | 201 | 0.0 | 0.0 | 0.00 | 0.00 | 0.00 | 96 | 1020.9 |
| 20260503053615 | 43 | 201 | 0.0 | 0.0 | 0.00 | 0.00 | 0.00 | 96 | 1021.1 |
| 20260503053114 | 43 | 201 | 0.0 | 0.0 | 0.00 | 0.00 | 0.00 | 96 | 1020.8 |
| 20260503052610 | 43 | 201 | 0.0 | 0.0 | 0.00 | 0.00 | 0.00 | 96 | 1021.1 |
| 20260503052106 | 44 | 201 | 0.0 | 0.0 | 0.00 | 0.00 | 0.00 | 96 | 1021.0 |
| 20260503051602 | 44 | 201 | 0.0 | 0.0 | 0.00 | 0.00 | 0.00 | 96 | 1020.9 |
| 20260503051100 | 44 | 201 | 0.0 | 0.0 | 0.00 | 0.00 | 0.00 | 96 | 1021.0 |
| 20260503050555 | 44 | 201 | 0.0 | 0.0 | 0.00 | 0.00 | 0.00 | 96 | 1020.9 |
| 20260503050053 | 44 | 201 | 0.0 | 0.0 | 0.00 | 0.14 | 0.14 | 96 | 1020.8 |
| 20260503045550 | 44 | 201 | 0.0 | 0.0 | 0.00 | 0.14 | 0.14 | 96 | 1020.7 |
| 20260503045047 | 44 | 201 | 0.0 | 0.0 | 0.00 | 0.14 | 0.14 | 96 | 1020.9 |
| 20260503044544 | 44 | 201 | 0.0 | 0.0 | 0.00 | 0.14 | 0.14 | 96 | 1020.7 |
| 20260503044041 | 44 | 201 | 0.0 | 0.0 | 0.00 | 0.14 | 0.14 | 96 | 1020.7 |
| 20260503043537 | 44 | 201 | 0.0 | 0.0 | 0.00 | 0.14 | 0.14 | 96 | 1020.7 |
| 20260503043034 | 44 | 201 | 0.0 | 0.0 | 0.00 | 0.14 | 0.14 | 96 | 1020.8 |
| 20260503042531 | 44 | 201 | 0.0 | 0.0 | 0.00 | 0.14 | 0.14 | 96 | 1020.7 |
| 20260503042027 | 44 | 201 | 0.0 | 0.0 | 0.00 | 0.14 | 0.14 | 95 | 1020.7 |
| 20260503041524 | 44 | 201 | 0.0 | 0.0 | 0.00 | 0.14 | 0.14 | 95 | 1020.8 |
| 20260503041022 | 44 | 201 | 0.0 | 0.0 | 0.00 | 0.14 | 0.14 | 95 | 1020.5 |
| 20260503040519 | 45 | 201 | 0.0 | 0.0 | 0.00 | 0.14 | 0.14 | 95 | 1020.7 |
| 20260503040016 | 45 | 201 | 0.0 | 0.0 | 0.00 | 0.14 | 0.14 | 95 | 1020.5 |
| 20260503035513 | 45 | 201 | 0.0 | 0.0 | 0.00 | 0.14 | 0.14 | 95 | 1020.5 |
| 20260503035011 | 45 | 201 | 0.0 | 0.0 | 0.00 | 0.14 | 0.14 | 95 | 1020.7 |
| 20260503034508 | 45 | 201 | 0.0 | 0.0 | 0.00 | 0.14 | 0.14 | 95 | 1020.4 |
| 20260503034004 | 45 | 201 | 0.0 | 0.0 | 0.00 | 0.14 | 0.14 | 95 | 1020.5 |
| 20260503033501 | 45 | 201 | 0.0 | 0.0 | 0.00 | 0.14 | 0.14 | 94 | 1020.4 |
| 20260503033000 | 46 | 201 | 0.0 | 0.0 | 0.00 | 0.14 | 0.14 | 95 | 1020.6 |
| 20260503032458 | 46 | 201 | 0.0 | 0.0 | 0.00 | 0.14 | 0.14 | 95 | 1020.4 |
| 20260503031955 | 46 | 201 | 0.0 | 0.0 | 0.00 | 0.14 | 0.14 | 95 | 1020.5 |
| 20260503031453 | 46 | 201 | 0.0 | 0.0 | 0.00 | 0.14 | 0.14 | 95 | 1020.5 |
| 20260503030949 | 46 | 201 | 0.0 | 0.0 | 0.00 | 0.14 | 0.14 | 95 | 1020.6 |
| 20260503030446 | 46 | 201 | 0.0 | 0.0 | 0.00 | 0.14 | 0.14 | 95 | 1020.3 |
| 20260503025943 | 46 | 201 | 0.0 | 0.0 | 0.00 | 0.14 | 0.14 | 95 | 1020.5 |
| 20260503025440 | 47 | 201 | 0.0 | 0.0 | 0.00 | 0.14 | 0.14 | 95 | 1020.5 |
| 20260503024938 | 47 | 201 | 0.0 | 0.0 | 0.00 | 0.14 | 0.14 | 95 | 1020.3 |
| 20260503024434 | 47 | 201 | 0.0 | 0.0 | 0.00 | 0.14 | 0.14 | 95 | 1020.4 |
| 20260503023931 | 47 | 201 | 0.0 | 0.0 | 0.00 | 0.14 | 0.14 | 95 | 1020.4 |
| 20260503023428 | 46 | 201 | 1.0 | 1.0 | 0.00 | 0.14 | 0.14 | 95 | 1020.1 |
| 20260503022925 | 46 | 201 | 0.0 | 0.0 | 0.00 | 0.14 | 0.14 | 95 | 1020.0 |
| 20260503022420 | 46 | 201 | 0.0 | 0.0 | 0.00 | 0.14 | 0.14 | 94 | 1020.0 |
| 20260503021916 | 46 | 200 | 0.0 | 0.0 | 0.00 | 0.14 | 0.14 | 94 | 1019.8 |
| 20260503021412 | 46 | 200 | 0.0 | 0.0 | 0.00 | 0.14 | 0.14 | 94 | 1020.0 |
| 20260503020910 | 46 | 200 | 0.0 | 0.0 | 0.00 | 0.14 | 0.14 | 94 | 1020.0 |
| 20260503020407 | 46 | 200 | 0.0 | 0.0 | 0.00 | 0.14 | 0.14 | 94 | 1019.9 |
| 20260503015903 | 46 | 200 | 0.0 | 0.0 | 0.00 | 0.14 | 0.14 | 94 | 1019.7 |
| 20260503015401 | 46 | 201 | 0.0 | 0.0 | 0.00 | 0.14 | 0.14 | 94 | 1019.7 |
| 20260503014856 | 46 | 201 | 0.0 | 0.0 | 0.00 | 0.14 | 0.14 | 94 | 1019.9 |
| 20260503014354 | 46 | 201 | 0.0 | 0.0 | 0.00 | 0.14 | 0.14 | 93 | 1019.8 |
| 20260503013852 | 47 | 201 | 0.0 | 0.0 | 0.00 | 0.14 | 0.14 | 93 | 1019.8 |
| 20260503013348 | 47 | 201 | 0.0 | 0.0 | 0.00 | 0.14 | 0.14 | 93 | 1019.7 |
| 20260503012845 | 47 | 201 | 0.0 | 0.0 | 0.00 | 0.14 | 0.14 | 92 | 1019.9 |
| 20260503012343 | 47 | 201 | 0.0 | 0.0 | 0.00 | 0.14 | 0.14 | 92 | 1020.0 |
| 20260503011840 | 47 | 201 | 0.0 | 0.0 | 0.00 | 0.14 | 0.14 | 92 | 1019.8 |
| 20260503011337 | 47 | 201 | 0.0 | 0.0 | 0.05 | 0.14 | 0.14 | 92 | 1019.9 |
| 20260503010833 | 48 | 201 | 0.0 | 0.0 | 0.05 | 0.14 | 0.14 | 92 | 1020.0 |
| 20260503010330 | 48 | 201 | 0.0 | 0.0 | 0.07 | 0.13 | 0.13 | 92 | 1019.9 |
| 20260503005827 | 48 | 203 | 0.0 | 0.0 | 0.19 | 0.13 | 0.13 | 91 | 1019.8 |
| 20260503005325 | 48 | 212 | 1.0 | 1.0 | 0.35 | 0.12 | 0.12 | 90 | 1020.0 |
| 20260503004820 | 49 | 221 | 0.0 | 0.0 | 0.28 | 0.10 | 0.10 | 90 | 1019.8 |
| 20260503004318 | 49 | 214 | 2.0 | 2.0 | 0.12 | 0.07 | 0.07 | 89 | 1020.0 |
| 20260503003816 | 49 | 198 | 1.0 | 1.0 | 0.00 | 0.05 | 0.05 | 89 | 1019.5 |
| 20260503003312 | 49 | 190 | 1.0 | 1.0 | 0.00 | 0.05 | 0.05 | 89 | 1019.5 |
| 20260503002809 | 49 | 189 | 1.0 | 1.0 | 0.00 | 0.05 | 0.05 | 90 | 1019.2 |
| 20260503002306 | 49 | 186 | 0.0 | 0.0 | 0.00 | 0.05 | 0.05 | 91 | 1019.0 |
| 20260503001803 | 49 | 182 | 1.0 | 1.0 | 0.00 | 0.05 | 0.05 | 91 | 1018.8 |
| 20260503001259 | 49 | 182 | 1.0 | 1.0 | 0.00 | 0.05 | 0.05 | 91 | 1018.7 |
| 20260503000757 | 49 | 182 | 0.0 | 0.0 | 0.00 | 0.05 | 0.05 | 90 | 1018.6 |
| 20260503000254 | 49 | 181 | 0.0 | 0.0 | 0.00 | 0.05 | 0.05 | 89 | 1018.5 |
| 20260502235751 | 49 | 182 | 0.0 | 0.0 | 0.00 | 0.05 | 0.05 | 89 | 1018.5 |
| 20260502235249 | 49 | 181 | 0.0 | 0.0 | 0.00 | 0.05 | 0.05 | 88 | 1018.4 |
| 20260502234744 | 49 | 182 | 1.0 | 1.0 | 0.00 | 0.05 | 0.05 | 86 | 1018.3 |
| 20260502234242 | 50 | 182 | 1.0 | 1.0 | 0.00 | 0.05 | 0.05 | 85 | 1018.5 |
| 20260502233738 | 50 | 181 | 0.0 | 0.0 | 0.00 | 0.05 | 0.05 | 83 | 1018.4 |
| 20260502233235 | 50 | 180 | 0.0 | 0.0 | 0.00 | 0.05 | 0.05 | 83 | 1018.2 |
| 20260502232730 | 50 | 181 | 0.0 | 0.0 | 0.00 | 0.05 | 0.05 | 84 | 1018.3 |
| 20260502232228 | 50 | 184 | 0.0 | 0.0 | 0.07 | 0.05 | 0.05 | 82 | 1018.5 |
| 20260502231725 | 50 | 183 | 0.0 | 0.0 | 0.07 | 0.05 | 0.05 | 82 | 1018.4 |
| 20260502231222 | 50 | 181 | 0.0 | 0.0 | 0.00 | 0.04 | 0.04 | 81 | 1018.5 |
| 20260502230721 | 50 | 210 | 0.0 | 0.0 | 0.07 | 0.04 | 0.04 | 82 | 1018.6 |
| 20260502230219 | 50 | 221 | 0.0 | 0.0 | 0.07 | 0.04 | 0.04 | 82 | 1018.5 |
| 20260502225714 | 51 | 195 | 0.0 | 0.0 | 0.05 | 0.03 | 0.03 | 79 | 1018.1 |
| 20260502225212 | 51 | 181 | 1.0 | 1.0 | 0.12 | 0.03 | 0.03 | 76 | 1018.1 |
| 20260502224708 | 53 | 180 | 1.0 | 1.0 | 0.12 | 0.02 | 0.02 | 71 | 1018.3 |
| 20260502224205 | 55 | 151 | 2.0 | 2.0 | 0.05 | 0.01 | 0.01 | 61 | 1018.3 |
| 20260502223702 | 56 | 207 | 1.0 | 1.0 | 0.00 | 0.00 | 0.00 | 52 | 1017.9 |
| 20260502223200 | 56 | 208 | 0.0 | 0.0 | 0.00 | 0.00 | 0.00 | 51 | 1017.6 |
| 20260502222658 | 57 | 208 | 1.0 | 1.0 | 0.00 | 0.00 | 0.00 | 52 | 1017.6 |
| 20260502222154 | 57 | 197 | 1.0 | 1.0 | 0.00 | 0.00 | 0.00 | 51 | 1017.5 |
| 20260502221650 | 58 | 196 | 1.0 | 1.0 | 0.00 | 0.00 | 0.00 | 51 | 1017.5 |
| 20260502221147 | 58 | 174 | 0.0 | 0.0 | 0.00 | 0.00 | 0.00 | 49 | 1017.3 |
| 20260502220643 | 59 | 233 | 0.0 | 1.0 | 0.00 | 0.00 | 0.00 | 47 | 1017.2 |
| 20260502220139 | 60 | 184 | 1.0 | 1.0 | 0.00 | 0.00 | 0.00 | 47 | 1017.2 |
| 20260502215637 | 60 | 53 | 2.0 | 3.0 | 0.00 | 0.00 | 0.00 | 47 | 1017.1 |